Wetterstation Vordersexau
Wetterdaten: Januar 2016
Datum Temp. A. Feuchte A. Luftdruck Regen Wind Richtung Taupunkt Windchill Windben
01.01.2016 5,6 C 87 % 1021,3 hPa 0,0 l/m 0,1 km/h SO 3,5 C 5,6 C 0,0 km/h
02.01.2016 5,3 C 86 % 1011,1 hPa 5,8 l/m 0,1 km/h O-SO 3,1 C 5,3 C 0,1 km/h
03.01.2016 7,0 C 79 % 1004,2 hPa 0,0 l/m 7,4 km/h SW 3,6 C 4,7 C 4,1 km/h
04.01.2016 6,5 C 84 % 992,2 hPa 5,4 l/m 12,7 km/h W-SW 3,9 C 2,0 C 7,1 km/h
05.01.2016 6,4 C 83 % 994,3 hPa 1,7 l/m 6,9 km/h S-SW 3,6 C 4,2 C 3,8 km/h
06.01.2016 5,3 C 85 % 998,3 hPa 9,5 l/m 3,7 km/h SO 3,0 C 4,2 C 2,1 km/h
07.01.2016 5,8 C 86 % 997,2 hPa 4,6 l/m 6,6 km/h O-SO 3,6 C 3,6 C 3,6 km/h
08.01.2016 5,7 C 86 % 1003,5 hPa 3,7 l/m 2,9 km/h SO 3,5 C 4,7 C 1,6 km/h
09.01.2016 6,0 C 88 % 1000,8 hPa 0,4 l/m 0,6 km/h SO 4,0 C 5,8 C 0,4 km/h
10.01.2016 7,0 C 82 % 996,4 hPa 2,9 l/m 9,9 km/h S 4,1 C 3,7 C 5,5 km/h
11.01.2016 6,7 C 83 % 991,9 hPa 12,8 l/m 10,2 km/h SO 4,0 C 3,2 C 5,7 km/h
12.01.2016 5,7 C 85 % 1000,4 hPa 6,2 l/m 19,9 km/h W-SW 3,4 C -1,2 C 11,0 km/h
13.01.2016 4,0 C 83 % 1014,4 hPa 0,0 l/m 16,8 km/h W-SW 1,4 C -2,3 C 9,3 km/h
14.01.2016 2,9 C 81 % 1009,6 hPa 0,0 l/m 7,7 km/h W-SW -0,3 C -0,2 C 4,3 km/h
15.01.2016 2,1 C 80 % 1011,2 hPa 0,4 l/m 17,3 km/h W-SW -1,0 C -4,4 C 9,6 km/h
16.01.2016 0,4 C 89 % 1020,0 hPa 2,9 l/m 0,0 km/h W -1,3 C 0,4 C 0,0 km/h
17.01.2016 -1,4 C 85 % 1021,8 hPa 2,5 l/m 0,3 km/h N-NO -3,6 C -1,4 C 0,2 km/h
18.01.2016 -6,4 C 85 % 1016,1 hPa 0,0 l/m 0,0 km/h NW -8,5 C -6,4 C 0,0 km/h
19.01.2016 -2,0 C 85 % 1012,7 hPa 0,0 l/m 0,0 km/h N -4,2 C -2,0 C 0,0 km/h
20.01.2016 -2,7 C 88 % 1016,8 hPa 0,0 l/m 0,0 km/h N -4,4 C -2,7 C 0,0 km/h
21.01.2016 -5,1 C 86 % 1023,0 hPa 0,4 l/m 0,0 km/h SO -7,0 C -5,1 C 0,0 km/h
22.01.2016 -2,6 C 82 % 1025,6 hPa 1,2 l/m 0,0 km/h O-SO -5,3 C -2,6 C 0,0 km/h
23.01.2016 3,9 C 87 % 1031,2 hPa 5,0 l/m 3,2 km/h SO 2,0 C 2,8 C 1,8 km/h
24.01.2016 3,1 C 84 % 1031,5 hPa 0,0 l/m 2,7 km/h SO 0,7 C 2,2 C 1,5 km/h
25.01.2016 5,9 C 76 % 1026,9 hPa 0,0 l/m 0,1 km/h SO 1,6 C 5,9 C 0,0 km/h
26.01.2016 8,6 C 74 % 1025,4 hPa 0,0 l/m 5,2 km/h SO 3,9 C 7,6 C 2,9 km/h
27.01.2016 11,0 C 72 % 1021,5 hPa 0,0 l/m 3,7 km/h W-SW 6,0 C 10,3 C 2,1 km/h
28.01.2016 10,0 C 77 % 1022,7 hPa 5,4 l/m 7,8 km/h W-SW 6,1 C 7,8 C 4,4 km/h
29.01.2016 7,4 C 80 % 1028,2 hPa 1,7 l/m 8,5 km/h NW 4,1 C 4,6 C 4,7 km/h
30.01.2016 7,7 C 78 % 1018,9 hPa 6,2 l/m 22,8 km/h W-SW 4,1 C 0,1 C 12,7 km/h
31.01.2016 7,9 C 87 % 1013,8 hPa 7,0 l/m 10,5 km/h W 5,9 C 5,0 C 5,8 km/h
Min-Datum 18.01.16 25.01.16 11.01.16 20 Tage 01.01.16 - 18.01.16 15.01.16 01.01.16
Min-Zeit 04:42 15:42 14:42 - 00:42 - 04:42 06:42 00:42
Minimum -11,6 C 43 % 989,3 hPa - 0,0 km/h - -13,2 C -13,9 C 0,0 km/h
Max-Datum 25.01.16 01.01.16 23.01.16 11.01.16 15.01.16 - 31.01.16 25.01.16 15.01.16
Max-Zeit 15:42 13:42 17:42 09:42 06:42 - 23:42 15:42 06:42
Maximum 20,4 C 89 % 1034,0 hPa 12,8 l/m 50,5 km/h
W-SW
- 10,7 C 20,4 C 28,1 km/h
W-SW
Durchschnitt 4,1 C 83 % 1013,0 hPa #85,8 l/m 6,1 km/h SO 1,4 C 2,1 C 3,4 km/h

Durchschnitt Minimum Temp.0,4 C
Durchschnitt Maximum Temp.8,7 C
www.sexauwetter.de